Weather History for KTDZ - August, 2014

Change the Weather History Date:

Saturday, August 30, 2014

  Actual Average (KTOL) Record (KTOL)
Temperature  
Mean Temperature 78 °F 70 °F  
Max Temperature 88 °F 81 °F 98 °F (1953)
Min Temperature 69 °F 59 °F 41 °F (1976)
Degree Days  
Heating Degree Days 0 1  
Month to date heating degree days 6  
Since 1 June heating degree days 44  
Since 1 July heating degree days 9  
Cooling Degree Days 13 6  
Month to date cooling degree days 211  
Year to date cooling degree days 699  
Since 1 June cooling degree days 646  
Growing Degree Days 28 (Base 50)    
Moisture  
Dew Point 65 °F    
Average Humidity 64    
Maximum Humidity 78    
Minimum Humidity 49    
Precipitation  
Precipitation 0.00 in 0.09 in 0.70 in (1984)
Month to date precipitation 3.05  
Year to date precipitation 23.22  
Snow  
Snow 0.00 in 0.00 in - ()
Month to date snowfall 0.0  
Since 1 June snowfall 0.0  
Since 1 July snowfall 0.0  
Snow Depth -    
Sea Level Pressure  
Sea Level Pressure 29.96 in    
Wind  
Wind Speed 12 mph (SSW)    
Max Wind Speed 24 mph    
Max Gust Speed 32 mph    
Visibility 10 miles    
Events      
T = Trace of Precipitation, MM = Missing Value Source: NWS Daily Summary

Daily Weather History Graph

Daily Weather History Graph

Search for Another Location

Airport or City:

Trip Planner

Search our weather history database for the weather conditions in past years. The results will help you decide how hot, cold, wet, or windy it might be!

Date:

Astronomy

Aug. 30, 2014 Rise Set
Actual Time 6:57 AM EDT 8:10 PM EDT
Civil Twilight 6:29 AM EDT 8:38 PM EDT
Nautical Twilight 5:54 AM EDT 9:13 PM EDT
Astronomical Twilight 5:18 AM EDT 9:48 PM EDT
Moon 11:48 AM EDT (8/30) 10:39 PM EDT (8/30)
Length of Visible Light 14h 09m
Length of Day
13h 12m
Waxing Crescent, 23% of the Moon is Illuminated
Aug 30
Waxing Crescent
Sep 2
First Quarter
Sep 8
Full
Sep 15
Last Quarter
Sep 24
New

Hourly Weather History & Observations

Time (EDT) Temp. Heat Index Dew Point Humidity Pressure Visibility Wind Dir Wind Speed Gust Speed Precip Events Conditions
12:53 AM 69.1 °F - 61.0 °F 75% 30.02 in 10.0 mi SSE 6.9 mph - N/A   Clear
1:53 AM 70.0 °F - 61.0 °F 73% 30.01 in 10.0 mi South 6.9 mph - N/A   Clear
2:53 AM 71.1 °F - 61.0 °F 70% 29.99 in 10.0 mi South 11.5 mph - N/A   Clear
3:53 AM 72.0 °F - 61.0 °F 68% 29.98 in 10.0 mi South 11.5 mph - N/A   Clear
4:53 AM 71.1 °F - 62.1 °F 73% 29.98 in 10.0 mi South 10.4 mph - N/A   Clear
5:53 AM 70.0 °F - 62.1 °F 76% 29.98 in 10.0 mi South 10.4 mph - N/A   Clear
6:53 AM 69.1 °F - 62.1 °F 78% 29.98 in 10.0 mi South 9.2 mph - N/A   Clear
7:53 AM 71.1 °F - 63.0 °F 75% 29.99 in 10.0 mi South 9.2 mph - N/A   Clear
8:53 AM 75.0 °F - 64.0 °F 69% 29.99 in 10.0 mi SSW 10.4 mph - N/A   Partly Cloudy
9:53 AM 79.0 °F - 64.9 °F 62% 29.97 in 10.0 mi SSW 15.0 mph - N/A   Clear
10:53 AM 82.0 °F 83.8 °F 64.9 °F 56% 29.97 in 10.0 mi SSW 13.8 mph 25.3 mph N/A   Mostly Cloudy
11:53 AM 84.0 °F 86.3 °F 66.0 °F 55% 29.96 in 10.0 mi SW 16.1 mph 23.0 mph N/A   Clear
12:53 PM 84.9 °F 86.6 °F 64.9 °F 51% 29.96 in 10.0 mi SSW 19.6 mph 27.6 mph N/A   Scattered Clouds
1:53 PM 86.0 °F 88.2 °F 66.0 °F 51% 29.95 in 10.0 mi SW 21.9 mph 31.1 mph N/A   Scattered Clouds
2:53 PM 84.9 °F 87.1 °F 66.0 °F 53% 29.94 in 10.0 mi SSW 21.9 mph 27.6 mph N/A   Scattered Clouds
3:53 PM 87.1 °F 89.2 °F 66.0 °F 49% 29.92 in 10.0 mi SW 18.4 mph 27.6 mph N/A   Clear
4:53 PM 84.9 °F 87.6 °F 66.9 °F 55% 29.90 in 10.0 mi SSW 24.2 mph 32.2 mph N/A   Scattered Clouds
5:53 PM 84.0 °F 86.3 °F 66.0 °F 55% 29.90 in 10.0 mi SSW 19.6 mph 26.5 mph N/A   Partly Cloudy
6:53 PM 82.0 °F 84.1 °F 66.0 °F 58% 29.91 in 10.0 mi SSW 16.1 mph 20.7 mph N/A   Clear
7:53 PM 80.1 °F 82.1 °F 66.0 °F 62% 29.91 in 10.0 mi SSW 13.8 mph 21.9 mph N/A   Clear
8:53 PM 78.1 °F - 66.9 °F 68% 29.93 in 10.0 mi SSW 11.5 mph - N/A   Clear
9:53 PM 78.1 °F - 66.9 °F 68% 29.95 in 10.0 mi WSW 11.5 mph - N/A   Clear
10:53 PM 77.0 °F - 66.9 °F 71% 29.94 in 10.0 mi SW 9.2 mph - N/A   Clear
11:53 PM 77.0 °F - 68.0 °F 74% 29.96 in 10.0 mi SW 11.5 mph - N/A   Clear